| time (UTC) | temp C | wind direction | speed KPH | gust KPH | rain 1hr cm | rain 24hr cm | rain mn cm | humidity % | barometer mb |
| 20260906052325 | 23 | 35 | 4.8 | 9.7 | 0.00 | 0.00 | 0.00 | 93 | 1016.2 |
| 20260906051851 | 23 | 51 | 4.8 | 8.0 | 0.00 | 0.00 | 0.00 | 93 | 1016.3 |
| 20260906051320 | 23 | 352 | 4.8 | 14.5 | 0.00 | 0.00 | 0.00 | 93 | 1016.2 |
| 20260906050826 | 23 | 6 | 6.4 | 14.5 | 0.00 | 0.00 | 0.00 | 93 | 1016.2 |
| 20260906050333 | 23 | 327 | 6.4 | 16.1 | 0.00 | 0.00 | 0.00 | 94 | 1016.2 |
| 20260906045841 | 23 | 84 | 3.2 | 9.7 | 0.00 | 0.00 | 0.00 | 94 | 1016.2 |
| 20260906045327 | 23 | 41 | 4.8 | 9.7 | 0.00 | 0.00 | 0.00 | 94 | 1016.2 |
| 20260906044837 | 23 | 53 | 4.8 | 8.0 | 0.00 | 0.00 | 0.00 | 94 | 1016.3 |
| 20260906044347 | 23 | 23 | 4.8 | 11.3 | 0.00 | 0.00 | 0.00 | 93 | 1016.3 |
| 20260906043816 | 23 | 23 | 6.4 | 11.3 | 0.00 | 0.00 | 0.00 | 93 | 1016.3 |
| 20260906043330 | 23 | 63 | 1.6 | 8.0 | 0.00 | 0.00 | 0.00 | 93 | 1016.2 |
| 20260906042838 | 23 | 343 | 4.8 | 9.7 | 0.00 | 0.00 | 0.00 | 93 | 1016.2 |
| 20260906042325 | 23 | 38 | 4.8 | 9.7 | 0.00 | 0.00 | 0.00 | 93 | 1016.1 |
| 20260906041830 | 23 | 46 | 6.4 | 9.7 | 0.00 | 0.00 | 0.00 | 93 | 1016.1 |
| 20260906041320 | 23 | 58 | 6.4 | 9.7 | 0.00 | 0.00 | 0.00 | 93 | 1016.0 |
| 20260906040828 | 23 | 31 | 4.8 | 8.0 | 0.00 | 0.00 | 0.00 | 92 | 1016.1 |
| 20260906040317 | 23 | 35 | 4.8 | 11.3 | 0.00 | 0.00 | 0.00 | 93 | 1015.9 |
| 20260906035826 | 23 | 41 | 6.4 | 11.3 | 0.00 | 0.00 | 0.00 | 92 | 1016.0 |
| 20260906035333 | 23 | 15 | 4.8 | 11.3 | 0.00 | 0.00 | 0.00 | 92 | 1015.9 |
| 20260906034842 | 23 | 58 | 6.4 | 11.3 | 0.00 | 0.00 | 0.00 | 92 | 1015.9 |
| 20260906034329 | 23 | 24 | 3.2 | 8.0 | 0.00 | 0.00 | 0.00 | 92 | 1015.8 |
| 20260906033838 | 23 | 80 | 3.2 | 11.3 | 0.00 | 0.00 | 0.00 | 92 | 1015.8 |
| 20260906033348 | 23 | 70 | 1.6 | 11.3 | 0.00 | 0.00 | 0.00 | 91 | 1015.8 |
| 20260906032835 | 23 | 92 | 1.6 | 9.7 | 0.00 | 0.00 | 0.00 | 91 | 1015.9 |
| 20260906032342 | 24 | 34 | 6.4 | 9.7 | 0.00 | 0.00 | 0.00 | 91 | 1015.8 |
| 20260906031827 | 24 | 49 | 4.8 | 8.0 | 0.00 | 0.00 | 0.00 | 91 | 1015.9 |
| 20260906031334 | 24 | 42 | 3.2 | 8.0 | 0.00 | 0.00 | 0.00 | 91 | 1015.8 |
| 20260906030824 | 24 | 45 | 0.0 | 8.0 | 0.00 | 0.00 | 0.00 | 91 | 1015.6 |
| 20260906030333 | 24 | 95 | 1.6 | 8.0 | 0.00 | 0.00 | 0.00 | 91 | 1015.8 |
| 20260906025825 | 24 | 63 | 1.6 | 8.0 | 0.00 | 0.00 | 0.00 | 91 | 1015.9 |
| 20260906025323 | 24 | 47 | 3.2 | 6.4 | 0.00 | 0.00 | 0.00 | 91 | 1015.8 |
| 20260906024831 | 24 | 60 | 1.6 | 9.7 | 0.00 | 0.00 | 0.00 | 91 | 1015.7 |
| 20260906024319 | 24 | 46 | 3.2 | 9.7 | 0.00 | 0.00 | 0.00 | 91 | 1015.7 |
| 20260906023829 | 24 | 82 | 1.6 | 14.5 | 0.00 | 0.00 | 0.00 | 90 | 1015.8 |
| 20260906023317 | 24 | 53 | 3.2 | 16.1 | 0.00 | 0.00 | 0.00 | 90 | 1015.8 |
| 20260906022825 | 24 | 56 | 3.2 | 19.3 | 0.00 | 0.00 | 0.00 | 89 | 1015.8 |
| 20260906022332 | 25 | 91 | 6.4 | 19.3 | 0.00 | 0.00 | 0.00 | 89 | 1015.7 |
| 20260906021819 | 25 | 40 | 6.4 | 12.9 | 0.00 | 0.00 | 0.00 | 89 | 1015.7 |
| 20260906021325 | 25 | 46 | 4.8 | 11.3 | 0.00 | 0.00 | 0.00 | 88 | 1015.5 |
| 20260906020834 | 25 | 79 | 1.6 | 12.9 | 0.00 | 0.00 | 0.00 | 87 | 1015.3 |
| 20260906020323 | 25 | 24 | 3.2 | 14.5 | 0.00 | 0.00 | 0.00 | 86 | 1015.3 |
| 20260906015830 | 25 | 59 | 6.4 | 14.5 | 0.00 | 0.00 | 0.00 | 85 | 1015.2 |
| 20260906015337 | 25 | 58 | 3.2 | 9.7 | 0.00 | 0.00 | 0.00 | 83 | 1015.2 |
| 20260906014825 | 25 | 85 | 1.6 | 6.4 | 0.00 | 0.00 | 0.00 | 82 | 1015.1 |
| 20260906014334 | 25 | 39 | 1.6 | 4.8 | 0.00 | 0.00 | 0.00 | 81 | 1015.0 |
| 20260906013823 | 25 | 44 | 1.6 | 4.8 | 0.00 | 0.00 | 0.00 | 82 | 1015.0 |
| 20260906013332 | 25 | 23 | 3.2 | 4.8 | 0.00 | 0.00 | 0.00 | 81 | 1014.7 |
| 20260906012820 | 25 | 25 | 1.6 | 4.8 | 0.00 | 0.00 | 0.00 | 82 | 1014.6 |
| 20260906012337 | 25 | 350 | 1.6 | 4.8 | 0.00 | 0.00 | 0.00 | 81 | 1014.6 |
| 20260906011826 | 25 | 77 | 0.0 | 4.8 | 0.00 | 0.00 | 0.00 | 80 | 1014.6 |
| 20260906011329 | 26 | 77 | 1.6 | 3.2 | 0.00 | 0.00 | 0.00 | 79 | 1014.5 |
| 20260906010818 | 26 | 347 | 1.6 | 1.6 | 0.00 | 0.00 | 0.00 | 78 | 1014.4 |
| 20260906010323 | 26 | 315 | 1.6 | 3.2 | 0.00 | 0.00 | 0.00 | 79 | 1014.4 |
| 20260906005831 | 26 | 320 | 1.6 | 3.2 | 0.00 | 0.00 | 0.00 | 78 | 1014.5 |
| 20260906005340 | 26 | 314 | 1.6 | 3.2 | 0.00 | 0.00 | 0.00 | 79 | 1014.4 |
| 20260906004826 | 26 | 338 | 1.6 | 3.2 | 0.00 | 0.00 | 0.00 | 79 | 1014.3 |
| 20260906004334 | 26 | 324 | 0.0 | 3.2 | 0.00 | 0.00 | 0.00 | 79 | 1014.3 |
| 20260906003842 | 26 | 349 | 1.6 | 3.2 | 0.00 | 0.00 | 0.00 | 78 | 1014.2 |
| 20260906003327 | 26 | 25 | 0.0 | 4.8 | 0.00 | 0.00 | 0.00 | 77 | 1014.1 |
| 20260906002836 | 26 | 25 | 1.6 | 4.8 | 0.00 | 0.00 | 0.00 | 77 | 1014.0 |
| 20260906002321 | 26 | 46 | 1.6 | 11.3 | 0.00 | 0.00 | 0.00 | 76 | 1014.0 |
| 20260906001824 | 26 | 53 | 1.6 | 11.3 | 0.00 | 0.00 | 0.00 | 76 | 1014.0 |
| 20260906001330 | 27 | 21 | 6.4 | 9.7 | 0.00 | 0.00 | 0.00 | 76 | 1014.1 |
| 20260906000903 | 27 | 338 | 6.4 | 12.9 | 0.00 | 0.00 | 0.00 | 75 | 1014.0 |
| 20260906000349 | 27 | 27 | 6.4 | 12.9 | 0.00 | 0.00 | 0.00 | 74 | 1014.0 |
| 20260905235833 | 27 | 25 | 6.4 | 9.7 | 0.00 | 0.00 | 0.00 | 75 | 1014.0 |
| 20260905235318 | 27 | 323 | 6.4 | 9.7 | 0.00 | 0.00 | 0.00 | 75 | 1014.1 |
| 20260905234841 | 27 | 23 | 8.0 | 9.7 | 0.00 | 0.00 | 0.00 | 75 | 1014.1 |
| 20260905234339 | 27 | 359 | 6.4 | 11.3 | 0.00 | 0.00 | 0.00 | 76 | 1014.0 |
| 20260905233854 | 27 | 27 | 3.2 | 14.5 | 0.00 | 0.00 | 0.00 | 76 | 1014.1 |
| 20260905233351 | 27 | 6 | 6.4 | 14.5 | 0.00 | 0.00 | 0.00 | 75 | 1014.2 |
| 20260905232833 | 28 | 73 | 6.4 | 19.3 | 0.00 | 0.00 | 0.00 | 74 | 1014.3 |
| 20260905232334 | 28 | 17 | 11.3 | 19.3 | 0.00 | 0.00 | 0.00 | 73 | 1014.3 |
| 20260905231834 | 29 | 22 | 6.4 | 20.9 | 0.00 | 0.00 | 0.00 | 73 | 1014.2 |
| 20260905231322 | 30 | 35 | 9.7 | 20.9 | 0.00 | 0.00 | 0.00 | 72 | 1014.2 |
| 20260905230827 | 31 | 34 | 9.7 | 17.7 | 0.00 | 0.00 | 0.00 | 70 | 1014.2 |
| 20260905230350 | 31 | 24 | 6.4 | 11.3 | 0.00 | 0.00 | 0.00 | 70 | 1014.1 |
| 20260905225826 | 31 | 311 | 6.4 | 11.3 | 0.00 | 0.00 | 0.00 | 69 | 1014.0 |
| 20260905225334 | 31 | 338 | 4.8 | 11.3 | 0.00 | 0.00 | 0.00 | 70 | 1014.0 |
| 20260905224822 | 31 | 288 | 4.8 | 11.3 | 0.00 | 0.00 | 0.00 | 69 | 1013.8 |
| 20260905224357 | 32 | 301 | 3.2 | 11.3 | 0.00 | 0.00 | 0.00 | 69 | 1013.9 |
| 20260905223824 | 32 | 269 | 3.2 | 11.3 | 0.00 | 0.00 | 0.00 | 68 | 1013.7 |
| 20260905223332 | 32 | 302 | 3.2 | 9.7 | 0.00 | 0.00 | 0.00 | 68 | 1013.5 |
| 20260905222821 | 32 | 333 | 3.2 | 11.3 | 0.00 | 0.00 | 0.00 | 69 | 1013.5 |
| 20260905222322 | 32 | 295 | 4.8 | 11.3 | 0.00 | 0.00 | 0.00 | 67 | 1013.4 |
| 20260905221850 | 32 | 296 | 4.8 | 11.3 | 0.00 | 0.00 | 0.00 | 68 | 1013.4 |
| 20260905221317 | 32 | 314 | 8.0 | 11.3 | 0.00 | 0.00 | 0.00 | 67 | 1013.5 |
| 20260905220823 | 32 | 279 | 6.4 | 9.7 | 0.00 | 0.00 | 0.00 | 67 | 1013.6 |
| 20260905220333 | 32 | 325 | 4.8 | 9.7 | 0.00 | 0.00 | 0.00 | 70 | 1013.5 |
| 20260905215821 | 32 | 292 | 1.6 | 8.0 | 0.00 | 0.00 | 0.00 | 68 | 1013.4 |
| 20260905215327 | 31 | 317 | 4.8 | 9.7 | 0.00 | 0.00 | 0.00 | 68 | 1013.3 |
| 20260905214836 | 31 | 293 | 3.2 | 9.7 | 0.00 | 0.00 | 0.00 | 68 | 1013.3 |
| 20260905214344 | 31 | 297 | 3.2 | 4.8 | 0.00 | 0.00 | 0.00 | 67 | 1013.4 |
| 20260905213832 | 31 | 270 | 1.6 | 11.3 | 0.00 | 0.00 | 0.00 | 68 | 1013.6 |
| 20260905213320 | 31 | 307 | 6.4 | 11.3 | 0.00 | 0.00 | 0.00 | 66 | 1013.4 |
| 20260905212830 | 32 | 245 | 4.8 | 11.3 | 0.00 | 0.00 | 0.00 | 67 | 1013.5 |
| 20260905212337 | 32 | 300 | 1.6 | 4.8 | 0.00 | 0.00 | 0.00 | 66 | 1013.5 |
| 20260905211825 | 32 | 285 | 3.2 | 4.8 | 0.00 | 0.00 | 0.00 | 66 | 1013.3 |
| 20260905211333 | 32 | 330 | 1.6 | 8.0 | 0.00 | 0.00 | 0.00 | 65 | 1013.2 |
| 20260905210822 | 32 | 334 | 4.8 | 9.7 | 0.00 | 0.00 | 0.00 | 65 | 1013.7 |
| 20260905210329 | 32 | 242 | 3.2 | 9.7 | 0.00 | 0.00 | 0.00 | 64 | 1013.7 |
| 20260905205833 | 32 | 302 | 4.8 | 12.9 | 0.00 | 0.00 | 0.00 | 64 | 1013.7 |
| 20260905205321 | 32 | 289 | 4.8 | 9.7 | 0.00 | 0.00 | 0.00 | 63 | 1013.8 |
| 20260905204830 | 32 | 293 | 3.2 | 11.3 | 0.00 | 0.00 | 0.00 | 63 | 1013.9 |
| 20260905204318 | 32 | 256 | 6.4 | 11.3 | 0.00 | 0.00 | 0.00 | 62 | 1013.7 |
| 20260905203828 | 33 | 245 | 4.8 | 11.3 | 0.00 | 0.00 | 0.00 | 62 | 1013.8 |
| 20260905203317 | 32 | 257 | 4.8 | 11.3 | 0.00 | 0.00 | 0.00 | 62 | 1013.8 |
| 20260905202842 | 32 | 284 | 0.0 | 9.7 | 0.00 | 0.00 | 0.00 | 64 | 1013.9 |
| 20260905202327 | 33 | 359 | 4.8 | 9.7 | 0.00 | 0.00 | 0.00 | 64 | 1014.0 |
| 20260905201836 | 33 | 345 | 4.8 | 16.1 | 0.00 | 0.00 | 0.00 | 61 | 1014.0 |
| 20260905201325 | 33 | 243 | 8.0 | 16.1 | 0.00 | 0.00 | 0.00 | 60 | 1014.1 |
| 20260905200833 | 33 | 274 | 1.6 | 9.7 | 0.00 | 0.00 | 0.00 | 61 | 1014.1 |
| 20260905200321 | 33 | 316 | 1.6 | 9.7 | 0.00 | 0.00 | 0.00 | 61 | 1014.0 |
| 20260905195831 | 33 | 311 | 1.6 | 9.7 | 0.00 | 0.00 | 0.00 | 61 | 1014.0 |
| 20260905195321 | 33 | 295 | 3.2 | 9.7 | 0.00 | 0.00 | 0.00 | 61 | 1014.1 |
| 20260905194826 | 32 | 256 | 3.2 | 8.0 | 0.00 | 0.00 | 0.00 | 62 | 1014.1 |
| 20260905194334 | 32 | 266 | 0.0 | 11.3 | 0.00 | 0.00 | 0.00 | 61 | 1014.2 |
| 20260905193822 | 32 | 297 | 3.2 | 16.1 | 0.00 | 0.00 | 0.00 | 61 | 1014.2 |
| 20260905193331 | 32 | 265 | 8.0 | 16.1 | 0.00 | 0.00 | 0.00 | 60 | 1014.2 |
| 20260905192820 | 33 | 311 | 3.2 | 12.9 | 0.00 | 0.00 | 0.00 | 61 | 1014.2 |
| 20260905192344 | 33 | 265 | 4.8 | 12.9 | 0.00 | 0.00 | 0.00 | 60 | 1014.3 |
| 20260905191822 | 32 | 323 | 0.0 | 12.9 | 0.00 | 0.00 | 0.00 | 60 | 1014.4 |
| 20260905191331 | 32 | 262 | 6.4 | 12.9 | 0.00 | 0.00 | 0.00 | 60 | 1014.4 |
| 20260905190821 | 32 | 302 | 6.4 | 14.5 | 0.00 | 0.00 | 0.00 | 62 | 1014.5 |
| 20260905190330 | 32 | 228 | 4.8 | 14.5 | 0.00 | 0.00 | 0.00 | 60 | 1014.7 |
| 20260905185818 | 32 | 9 | 3.2 | 11.3 | 0.00 | 0.00 | 0.00 | 62 | 1014.5 |
| 20260905185324 | 32 | 314 | 8.0 | 11.3 | 0.00 | 0.00 | 0.00 | 62 | 1014.7 |
| 20260905184833 | 32 | 266 | 4.8 | 9.7 | 0.00 | 0.00 | 0.00 | 62 | 1014.9 |
| 20260905184320 | 32 | 286 | 4.8 | 9.7 | 0.00 | 0.00 | 0.00 | 60 | 1014.9 |
| 20260905183829 | 32 | 290 | 4.8 | 11.3 | 0.00 | 0.00 | 0.00 | 61 | 1015.1 |
| 20260905183337 | 32 | 277 | 4.8 | 14.5 | 0.00 | 0.00 | 0.00 | 62 | 1015.1 |
| 20260905182845 | 32 | 151 | 3.2 | 19.3 | 0.00 | 0.00 | 0.00 | 61 | 1015.1 |
| 20260905182332 | 32 | 238 | 6.4 | 19.3 | 0.00 | 0.00 | 0.00 | 61 | 1015.2 |
| 20260905181821 | 31 | 256 | 4.8 | 12.9 | 0.00 | 0.00 | 0.00 | 61 | 1015.3 |
| 20260905181330 | 31 | 248 | 8.0 | 11.3 | 0.00 | 0.00 | 0.00 | 61 | 1015.3 |
| 20260905180838 | 31 | 143 | 4.8 | 14.5 | 0.00 | 0.00 | 0.00 | 62 | 1015.3 |
| 20260905180326 | 31 | 234 | 8.0 | 14.5 | 0.00 | 0.00 | 0.00 | 61 | 1015.4 |
| 20260905175834 | 31 | 274 | 6.4 | 12.9 | 0.00 | 0.00 | 0.00 | 60 | 1015.3 |
| 20260905175321 | 31 | 224 | 3.2 | 8.0 | 0.00 | 0.00 | 0.00 | 60 | 1015.4 |
| 20260905174827 | 31 | 209 | 4.8 | 14.5 | 0.00 | 0.00 | 0.00 | 61 | 1015.6 |
| 20260905174315 | 31 | 217 | 4.8 | 14.5 | 0.00 | 0.00 | 0.00 | 61 | 1015.6 |
| 20260905173824 | 31 | 226 | 8.0 | 14.5 | 0.00 | 0.00 | 0.00 | 61 | 1015.6 |
| 20260905173332 | 31 | 102 | 4.8 | 12.9 | 0.00 | 0.00 | 0.00 | 62 | 1015.6 |
| 20260905172821 | 31 | 160 | 4.8 | 14.5 | 0.00 | 0.00 | 0.00 | 62 | 1015.7 |
| 20260905172330 | 31 | 217 | 6.4 | 14.5 | 0.00 | 0.00 | 0.00 | 63 | 1015.9 |
| 20260905171841 | 31 | 215 | 1.6 | 9.7 | 0.00 | 0.00 | 0.00 | 64 | 1015.9 |
| 20260905171326 | 31 | 147 | 3.2 | 9.7 | 0.00 | 0.00 | 0.00 | 62 | 1015.9 |
| 20260905170835 | 30 | 250 | 1.6 | 8.0 | 0.00 | 0.00 | 0.00 | 64 | 1016.1 |
| 20260905170323 | 30 | 239 | 4.8 | 9.7 | 0.00 | 0.00 | 0.00 | 65 | 1016.2 |
| 20260905165830 | 30 | 237 | 3.2 | 12.9 | 0.00 | 0.00 | 0.00 | 64 | 1016.3 |
| 20260905165337 | 30 | 216 | 6.4 | 12.9 | 0.00 | 0.00 | 0.00 | 63 | 1016.4 |
| 20260905164845 | 31 | 195 | 3.2 | 9.7 | 0.00 | 0.00 | 0.00 | 66 | 1016.5 |
| 20260905164331 | 30 | 250 | 3.2 | 8.0 | 0.00 | 0.00 | 0.00 | 65 | 1016.4 |
| 20260905163821 | 30 | 255 | 3.2 | 8.0 | 0.00 | 0.00 | 0.00 | 64 | 1016.5 |
| 20260905163331 | 30 | 224 | 1.6 | 9.7 | 0.00 | 0.00 | 0.00 | 65 | 1016.5 |
| 20260905162851 | 30 | 210 | 3.2 | 9.7 | 0.00 | 0.00 | 0.00 | 65 | 1016.5 |
| 20260905162318 | 29 | 212 | 3.2 | 8.0 | 0.00 | 0.00 | 0.00 | 66 | 1016.5 |
| 20260905161827 | 28 | 221 | 1.6 | 9.7 | 0.00 | 0.00 | 0.00 | 68 | 1016.6 |
| 20260905161316 | 28 | 268 | 3.2 | 6.4 | 0.00 | 0.00 | 0.00 | 67 | 1016.6 |
| 20260905160842 | 28 | 107 | 3.2 | 6.4 | 0.00 | 0.00 | 0.00 | 68 | 1016.6 |
| 20260905160328 | 28 | 248 | 1.6 | 8.0 | 0.00 | 0.00 | 0.00 | 68 | 1016.5 |
| 20260905155816 | 28 | 105 | 1.6 | 11.3 | 0.00 | 0.00 | 0.00 | 69 | 1016.6 |
| 20260905155323 | 28 | 228 | 3.2 | 11.3 | 0.00 | 0.00 | 0.00 | 70 | 1016.8 |
| 20260905154832 | 28 | 250 | 3.2 | 11.3 | 0.00 | 0.00 | 0.00 | 69 | 1016.6 |
| 20260905154321 | 28 | 221 | 6.4 | 11.3 | 0.00 | 0.00 | 0.00 | 68 | 1016.6 |
| 20260905153831 | 28 | 243 | 3.2 | 8.0 | 0.00 | 0.00 | 0.00 | 69 | 1016.7 |
| 20260905153320 | 28 | 208 | 3.2 | 8.0 | 0.00 | 0.00 | 0.00 | 68 | 1016.8 |
| 20260905152828 | 27 | 80 | 1.6 | 9.7 | 0.00 | 0.00 | 0.00 | 71 | 1016.9 |
| 20260905152335 | 27 | 141 | 3.2 | 9.7 | 0.00 | 0.00 | 0.00 | 71 | 1016.8 |
| 20260905151842 | 27 | 136 | 3.2 | 16.1 | 0.00 | 0.00 | 0.00 | 69 | 1016.8 |
| 20260905151328 | 27 | 136 | 6.4 | 16.1 | 0.00 | 0.00 | 0.00 | 69 | 1016.7 |
| 20260905150850 | 27 | 172 | 1.6 | 11.3 | 0.00 | 0.00 | 0.00 | 71 | 1016.6 |
| 20260905150317 | 27 | 143 | 4.8 | 14.5 | 0.00 | 0.00 | 0.00 | 70 | 1016.6 |
| 20260905145826 | 27 | 126 | 1.6 | 16.1 | 0.00 | 0.00 | 0.00 | 71 | 1016.6 |
| 20260905145353 | 27 | 92 | 3.2 | 16.1 | 0.00 | 0.00 | 0.00 | 71 | 1016.6 |
| 20260905144820 | 27 | 150 | 3.2 | 11.3 | 0.00 | 0.00 | 0.00 | 71 | 1016.7 |
| 20260905144326 | 27 | 98 | 3.2 | 11.3 | 0.00 | 0.00 | 0.00 | 71 | 1016.8 |
| 20260905143815 | 26 | 144 | 3.2 | 11.3 | 0.00 | 0.00 | 0.00 | 72 | 1016.8 |
| 20260905143350 | 26 | 206 | 4.8 | 11.3 | 0.00 | 0.00 | 0.00 | 72 | 1016.8 |
| 20260905142837 | 26 | 115 | 3.2 | 8.0 | 0.00 | 0.00 | 0.00 | 73 | 1016.9 |
| 20260905142325 | 26 | 248 | 1.6 | 11.3 | 0.00 | 0.00 | 0.00 | 73 | 1016.9 |
| 20260905141834 | 26 | 160 | 4.8 | 11.3 | 0.00 | 0.00 | 0.00 | 73 | 1017.0 |
| 20260905141342 | 26 | 108 | 3.2 | 12.9 | 0.00 | 0.00 | 0.00 | 74 | 1017.0 |
| 20260905140830 | 26 | 134 | 3.2 | 12.9 | 0.00 | 0.00 | 0.00 | 75 | 1016.9 |
| 20260905140336 | 25 | 167 | 3.2 | 9.7 | 0.00 | 0.00 | 0.00 | 75 | 1017.0 |
| 20260905135824 | 25 | 228 | 4.8 | 14.5 | 0.00 | 0.00 | 0.00 | 75 | 1017.0 |
| 20260905135328 | 25 | 75 | 3.2 | 11.3 | 0.00 | 0.00 | 0.00 | 77 | 1017.0 |
| 20260905134818 | 25 | 113 | 4.8 | 16.1 | 0.00 | 0.00 | 0.00 | 77 | 1017.0 |
| 20260905134329 | 25 | 113 | 4.8 | 16.1 | 0.00 | 0.00 | 0.00 | 77 | 1017.1 |
| 20260905133816 | 25 | 122 | 4.8 | 11.3 | 0.00 | 0.00 | 0.00 | 77 | 1017.0 |
| 20260905133325 | 25 | 155 | 3.2 | 11.3 | 0.00 | 0.00 | 0.00 | 77 | 1017.0 |
| 20260905132831 | 25 | 136 | 3.2 | 14.5 | 0.00 | 0.00 | 0.00 | 78 | 1017.1 |
| 20260905132341 | 24 | 148 | 3.2 | 14.5 | 0.00 | 0.00 | 0.00 | 78 | 1017.2 |
| 20260905131829 | 24 | 127 | 3.2 | 11.3 | 0.00 | 0.00 | 0.00 | 78 | 1017.3 |
| 20260905131336 | 24 | 137 | 3.2 | 11.3 | 0.00 | 0.00 | 0.00 | 79 | 1017.2 |
| 20260905130825 | 24 | 143 | 3.2 | 11.3 | 0.00 | 0.00 | 0.00 | 79 | 1017.0 |
| 20260905130333 | 23 | 278 | 1.6 | 12.9 | 0.00 | 0.00 | 0.00 | 81 | 1017.1 |
| 20260905125842 | 23 | 150 | 6.4 | 12.9 | 0.00 | 0.00 | 0.00 | 80 | 1017.0 |
| 20260905125326 | 23 | 189 | 3.2 | 11.3 | 0.00 | 0.00 | 0.00 | 81 | 1016.9 |
| 20260905124835 | 23 | 141 | 1.6 | 8.0 | 0.00 | 0.00 | 0.00 | 82 | 1017.0 |
| 20260905124324 | 22 | 138 | 1.6 | 12.9 | 0.00 | 0.00 | 0.00 | 83 | 1017.0 |
| 20260905123832 | 22 | 99 | 3.2 | 12.9 | 0.00 | 0.00 | 0.00 | 82 | 1017.1 |
| 20260905123322 | 22 | 22 | 1.6 | 11.3 | 0.00 | 0.00 | 0.00 | 84 | 1016.9 |
| 20260905122830 | 22 | 173 | 3.2 | 14.5 | 0.00 | 0.00 | 0.00 | 84 | 1017.0 |
| 20260905122320 | 22 | 136 | 4.8 | 14.5 | 0.00 | 0.00 | 0.00 | 85 | 1017.0 |
| 20260905121826 | 22 | 114 | 1.6 | 14.5 | 0.00 | 0.00 | 0.00 | 85 | 1017.1 |
| 20260905121331 | 22 | 141 | 3.2 | 14.5 | 0.00 | 0.00 | 0.00 | 86 | 1017.2 |
| 20260905120820 | 21 | 77 | 1.6 | 9.7 | 0.00 | 0.00 | 0.00 | 86 | 1017.1 |
| 20260905120330 | 21 | 105 | 3.2 | 9.7 | 0.00 | 0.00 | 0.00 | 86 | 1017.0 |
| 20260905115818 | 21 | 49 | 3.2 | 9.7 | 0.00 | 0.00 | 0.00 | 86 | 1017.2 |
| 20260905115324 | 21 | 94 | 3.2 | 14.5 | 0.00 | 0.00 | 0.00 | 86 | 1017.1 |
| 20260905114855 | 21 | 109 | 3.2 | 14.5 | 0.00 | 0.00 | 0.00 | 87 | 1016.9 |
| 20260905114327 | 21 | 102 | 3.2 | 9.7 | 0.00 | 0.00 | 0.00 | 86 | 1016.8 |
| 20260905113833 | 21 | 75 | 4.8 | 12.9 | 0.00 | 0.00 | 0.00 | 86 | 1016.8 |
| 20260905113327 | 22 | 70 | 4.8 | 12.9 | 0.00 | 0.00 | 0.00 | 86 | 1016.9 |
| 20260905112835 | 22 | 116 | 3.2 | 14.5 | 0.00 | 0.00 | 0.00 | 86 | 1016.7 |
| 20260905112321 | 22 | 84 | 4.8 | 14.5 | 0.00 | 0.00 | 0.00 | 85 | 1016.8 |
| 20260905111828 | 22 | 91 | 3.2 | 11.3 | 0.00 | 0.00 | 0.00 | 85 | 1016.7 |
| 20260905111314 | 22 | 83 | 4.8 | 11.3 | 0.00 | 0.00 | 0.00 | 85 | 1016.7 |
| 20260905110824 | 22 | 118 | 1.6 | 11.3 | 0.00 | 0.00 | 0.00 | 85 | 1016.7 |
| 20260905110320 | 22 | 61 | 3.2 | 16.1 | 0.00 | 0.00 | 0.00 | 85 | 1016.8 |
| 20260905105828 | 22 | 309 | 4.8 | 19.3 | 0.00 | 0.00 | 0.00 | 84 | 1016.7 |
| 20260905105317 | 22 | 90 | 8.0 | 19.3 | 0.00 | 0.00 | 0.00 | 84 | 1016.7 |
| 20260905104825 | 23 | 225 | 1.6 | 19.3 | 0.00 | 0.00 | 0.00 | 86 | 1016.9 |
| 20260905104353 | 23 | 32 | 4.8 | 30.6 | 0.00 | 0.00 | 0.00 | 86 | 1016.9 |
| 20260905103821 | 23 | 82 | 8.0 | 30.6 | 0.00 | 0.00 | 0.00 | 90 | 1016.7 |
| 20260905103327 | 23 | 45 | 6.4 | 16.1 | 0.00 | 0.00 | 0.00 | 95 | 1016.5 |
| 20260905102816 | 23 | 61 | 1.6 | 4.8 | 0.00 | 0.00 | 0.00 | 96 | 1016.1 |
| 20260905102352 | 23 | 115 | 0.0 | 0.0 | 0.00 | 0.00 | 0.00 | 96 | 1015.6 |
| 20260905101334 | 23 | 115 | 0.0 | 0.0 | 0.00 | 0.00 | 0.00 | 96 | 1015.4 |
| 20260905100823 | 23 | 115 | 0.0 | 0.0 | 0.00 | 0.00 | 0.00 | 95 | 1015.4 |
| 20260905100333 | 23 | 115 | 0.0 | 0.0 | 0.00 | 0.00 | 0.00 | 95 | 1015.4 |
| 20260905095823 | 23 | 115 | 0.0 | 0.0 | 0.00 | 0.00 | 0.00 | 95 | 1015.4 |
| 20260905095331 | 23 | 115 | 0.0 | 1.6 | 0.00 | 0.00 | 0.00 | 96 | 1015.4 |
| 20260905094820 | 23 | 115 | 0.0 | 1.6 | 0.00 | 0.00 | 0.00 | 96 | 1015.4 |
| 20260905094327 | 23 | 115 | 0.0 | 0.0 | 0.00 | 0.00 | 0.00 | 96 | 1015.2 |
| 20260905093835 | 23 | 115 | 0.0 | 0.0 | 0.00 | 0.00 | 0.00 | 95 | 1015.2 |
| 20260905093323 | 23 | 115 | 0.0 | 0.0 | 0.00 | 0.00 | 0.00 | 95 | 1015.1 |
| 20260905092849 | 23 | 115 | 0.0 | 0.0 | 0.00 | 0.00 | 0.00 | 95 | 1015.1 |
| 20260905092317 | 23 | 115 | 0.0 | 0.0 | 0.00 | 0.00 | 0.00 | 95 | 1015.3 |
| 20260905091827 | 23 | 115 | 0.0 | 0.0 | 0.00 | 0.00 | 0.00 | 95 | 1015.1 |
| 20260905091317 | 23 | 115 | 0.0 | 0.0 | 0.00 | 0.00 | 0.00 | 95 | 1015.1 |
| 20260905090823 | 23 | 115 | 0.0 | 1.6 | 0.00 | 0.00 | 0.00 | 95 | 1015.2 |
| 20260905090352 | 24 | 115 | 0.0 | 1.6 | 0.00 | 0.00 | 0.00 | 94 | 1015.3 |
| 20260905085821 | 23 | 128 | 0.0 | 0.0 | 0.00 | 0.00 | 0.00 | 94 | 1015.2 |
| 20260905085327 | 23 | 128 | 0.0 | 0.0 | 0.00 | 0.00 | 0.00 | 94 | 1015.1 |
| 20260905084836 | 24 | 128 | 0.0 | 0.0 | 0.00 | 0.00 | 0.00 | 94 | 1015.1 |
| 20260905084325 | 24 | 128 | 0.0 | 0.0 | 0.00 | 0.00 | 0.00 | 94 | 1015.2 |
| 20260905083834 | 24 | 128 | 0.0 | 0.0 | 0.00 | 0.00 | 0.00 | 93 | 1015.3 |
| 20260905083343 | 24 | 127 | 0.0 | 0.0 | 0.00 | 0.00 | 0.00 | 93 | 1015.3 |
| 20260905082831 | 24 | 128 | 0.0 | 0.0 | 0.00 | 0.00 | 0.00 | 93 | 1015.3 |
| 20260905082340 | 24 | 128 | 0.0 | 0.0 | 0.00 | 0.00 | 0.00 | 93 | 1015.2 |
| 20260905081827 | 24 | 128 | 0.0 | 0.0 | 0.00 | 0.00 | 0.00 | 93 | 1015.1 |
| 20260905081332 | 24 | 128 | 0.0 | 0.0 | 0.00 | 0.00 | 0.00 | 93 | 1015.2 |
| 20260905080820 | 25 | 138 | 0.0 | 0.0 | 0.00 | 0.00 | 0.00 | 92 | 1015.0 |
| 20260905080329 | 25 | 138 | 0.0 | 0.0 | 0.00 | 0.00 | 0.00 | 93 | 1014.9 |
| 20260905075818 | 25 | 138 | 0.0 | 0.0 | 0.00 | 0.00 | 0.00 | 93 | 1014.8 |
| 20260905075328 | 25 | 138 | 0.0 | 0.0 | 0.00 | 0.00 | 0.00 | 93 | 1014.7 |
| 20260905074817 | 25 | 138 | 0.0 | 1.6 | 0.00 | 0.00 | 0.00 | 92 | 1014.5 |
| 20260905074323 | 25 | 138 | 0.0 | 1.6 | 0.00 | 0.00 | 0.00 | 93 | 1014.4 |
| 20260905073833 | 25 | 138 | 0.0 | 1.6 | 0.00 | 0.00 | 0.00 | 92 | 1014.4 |
| 20260905073340 | 25 | 123 | 0.0 | 1.6 | 0.00 | 0.00 | 0.00 | 93 | 1014.3 |
| 20260905072827 | 25 | 122 | 0.0 | 1.6 | 0.00 | 0.00 | 0.00 | 93 | 1014.5 |
| 20260905072334 | 24 | 122 | 0.0 | 1.6 | 0.00 | 0.00 | 0.00 | 92 | 1014.5 |
| 20260905071824 | 24 | 122 | 0.0 | 0.0 | 0.00 | 0.00 | 0.00 | 92 | 1014.5 |
| 20260905071333 | 25 | 127 | 0.0 | 1.6 | 0.00 | 0.00 | 0.00 | 92 | 1014.6 |
| 20260905070821 | 25 | 127 | 0.0 | 1.6 | 0.00 | 0.00 | 0.00 | 92 | 1014.6 |
| 20260905070329 | 25 | 120 | 0.0 | 1.6 | 0.00 | 0.00 | 0.00 | 92 | 1014.5 |
| 20260905065857 | 25 | 117 | 0.0 | 1.6 | 0.00 | 0.00 | 0.00 | 92 | 1014.6 |
| 20260905065324 | 25 | 118 | 0.0 | 1.6 | 0.00 | 0.00 | 0.00 | 92 | 1014.7 |
| 20260905064832 | 24 | 118 | 0.0 | 1.6 | 0.00 | 0.00 | 0.00 | 92 | 1014.7 |
| 20260905064321 | 24 | 116 | 0.0 | 1.6 | 0.00 | 0.00 | 0.00 | 92 | 1014.8 |
| 20260905063846 | 24 | 116 | 0.0 | 0.0 | 0.00 | 0.00 | 0.00 | 92 | 1014.9 |
| 20260905063354 | 24 | 116 | 0.0 | 0.0 | 0.00 | 0.00 | 0.00 | 92 | 1015.1 |
| 20260905062823 | 25 | 116 | 0.0 | 0.0 | 0.00 | 0.00 | 0.00 | 91 | 1015.3 |
| 20260905062330 | 25 | 116 | 0.0 | 0.0 | 0.00 | 0.00 | 0.00 | 92 | 1015.2 |
| 20260905061819 | 25 | 116 | 0.0 | 1.6 | 0.00 | 0.00 | 0.00 | 91 | 1015.3 |
| 20260905061323 | 25 | 116 | 0.0 | 1.6 | 0.00 | 0.00 | 0.00 | 91 | 1015.4 |
| 20260905060833 | 25 | 116 | 0.0 | 3.2 | 0.00 | 0.00 | 0.00 | 91 | 1015.4 |
| 20260905060342 | 25 | 124 | 0.0 | 3.2 | 0.00 | 0.00 | 0.00 | 91 | 1015.4 |
| 20260905055830 | 24 | 101 | 0.0 | 1.6 | 0.00 | 0.00 | 0.00 | 91 | 1015.5 |
| 20260905055337 | 24 | 106 | 0.0 | 1.6 | 0.00 | 0.00 | 0.00 | 90 | 1015.6 |
| 20260905054825 | 24 | 106 | 0.0 | 1.6 | 0.00 | 0.00 | 0.00 | 90 | 1015.7 |
| 20260905054334 | 24 | 106 | 0.0 | 0.0 | 0.00 | 0.00 | 0.00 | 90 | 1015.6 |
| 20260905053824 | 24 | 106 | 0.0 | 0.0 | 0.00 | 0.00 | 0.00 | 90 | 1015.6 |
| 20260905053333 | 24 | 106 | 0.0 | 0.0 | 0.00 | 0.00 | 0.00 | 89 | 1015.8 |
| 20260905052823 | 25 | 106 | 0.0 | 0.0 | 0.00 | 0.00 | 0.00 | 89 | 1015.9 |